"2009-02-24 00:00:00",656986,2.974,350.4,5.474,0.449,10.35,104.828,11.63,12.57,22.73,0,110.3,13.34,12.42,312.4
"2009-02-24 00:00:30",656987,4.542,348.9,8.1,1.093,12.28,104.803,11.57,12.57,22.84,0,110.3,13.31,12.36,310.9
"2009-02-24 00:01:00",656988,3.231,347.9,5.854,0.932,12.19,104.7764,11.5,12.66,22.94,0,110.3,13.32,12.29,309.9
"2009-02-24 00:01:30",656989,3.427,359.9,8.66,1.453,13.49,104.77,11.48,12.48,22.9,0,110.3,13.32,12.28,321.9
"2009-02-24 00:02:00",656990,3.26,10.19,10.72,1.381,14.53,104.77,11.48,12.65,23.19,0,110.3,13.32,12.28,332.2
"2009-02-24 00:02:30",656991,2.537,12.46,9.22,1.046,11.32,104.77,11.48,12.53,23.04,0,110.3,13.32,12.28,334.5
"2009-02-24 00:03:00",656992,1.969,7.893,9.16,0.521,9.77,104.77,11.48,12.41,22.99,0,110.3,13.35,12.28,329.9
"2009-02-24 00:03:30",656993,2.723,25.33,6.336,1.096,10.3,104.77,11.48,12.45,23.17,0,110.3,13.32,12.28,347.3
"2009-02-24 00:04:00",656994,3.283,27.2,7.975,1.005,11.83,104.77,11.48,12.52,23.31,0,110.3,13.32,12.28,349.2
"2009-02-24 00:04:30",656995,1.872,35.3,11.14,0.317,10.3,104.7871,11.53,12.41,23.32,0,110.3,13.35,12.32,357.3
"2009-02-24 00:05:00",656996,1.393,22.79,15.01,0.489,10.23,104.8038,11.57,12.44,23.21,0,110.3,13.35,12.36,344.8
"2009-02-24 00:05:30",656997,1.474,14.3,4.925,0.402,10.38,104.8038,11.57,12.46,22.86,0,110.3,13.36,12.36,336.3
"2009-02-24 00:06:00",656998,2.304,36.9,8.33,0.283,10.96,104.8038,11.57,12.46,23.27,0,110.3,13.36,12.36,358.9
"2009-02-24 00:06:30",656999,3.951,43.62,10.78,1.258,13.34,104.8038,11.57,12.57,23.25,0,110.3,13.32,12.36,5.6
"2009-02-24 00:07:00",657000,2.772,30.6,8.99,1.011,12.89,104.8196,11.61,12.62,23.44,0,110.3,13.32,12.40,352.6
"2009-02-24 00:07:30",657001,3.613,41.39,13.93,1.456,14,104.8309,11.64,12.69,23.33,0,110.3,13.32,12.43,3.4
"2009-02-24 00:08:00",657002,2.167,26.52,13.17,0.946,10.78,104.8338,11.65,12.6,23.19,0,110.3,13.32,12.44,348.5
"2009-02-24 00:08:30",657003,3.171,26.29,7.823,1.394,12.9,104.8257,11.63,12.62,23.15,0,110.3,13.32,12.42,348.3
"2009-02-24 00:09:00",657004,3.517,36.07,5.667,1.202,11.97,104.8117,11.59,12.57,23.07,0,110.3,13.32,12.38,358.1
"2009-02-24 00:09:30",657005,2.606,26.52,13,1.291,11.94,104.8103,11.59,12.65,23.17,0,110.3,13.32,12.38,348.5
"2009-02-24 00:10:00",657006,2.033,21.5,5.739,0.329,9.96,104.8132,11.59,12.48,23,0,110.3,13.36,12.39,343.5
"2009-02-24 00:10:30",657007,2.053,19.25,8.03,0.497,10.11,104.8118,11.59,12.49,23.01,0,110.2,13.36,12.38,341.2
"2009-02-24 00:11:00",657008,1.614,12.41,9.68,0.521,10.38,104.8051,11.57,12.47,22.91,0,110.2,13.35,12.37,334.4
"2009-02-24 00:11:30",657009,2.154,9.85,5.778,0.461,10.58,104.7826,11.52,12.46,22.75,0,110.3,13.36,12.31,331.9
"2009-02-24 00:12:00",657010,3.85,22.96,8.7,1.355,13.07,104.7775,11.5,12.52,22.81,0,110.3,13.32,12.30,345.0
"2009-02-24 00:12:30",657011,4.497,28.54,7.252,1.198,14.88,104.7496,11.43,12.63,23,0,110.3,13.32,12.22,350.5
"2009-02-24 00:13:00",657012,2.467,17.12,6.509,0.782,11.51,104.7494,11.43,12.51,23.01,0,110.3,13.32,12.22,339.1
"2009-02-24 00:13:30",657013,3.287,33.56,8.16,1.26,11.62,104.7503,11.43,12.43,23.02,0,110.3,13.32,12.23,355.6
"2009-02-24 00:14:00",657014,4.256,36.23,5.867,1.323,13.71,104.7533,11.44,12.63,23.34,0,110.3,13.32,12.23,358.2
"2009-02-24 00:14:30",657015,3.175,30.53,5.132,1.071,12.26,104.7547,11.44,12.51,23.31,0,110.3,13.32,12.24,352.5
"2009-02-24 00:15:00",657016,2.436,30.9,5.225,0.379,10,104.7624,11.46,12.36,23.08,0,110.3,13.35,12.26,352.9
"2009-02-24 00:15:30",657017,2.096,27.26,5.268,0.269,10,104.76,11.46,12.36,22.92,0,110.3,13.35,12.25,349.3
"2009-02-24 00:16:00",657018,2.123,32.42,6.507,0.212,10.28,104.7639,11.47,12.35,22.95,0,110.3,13.36,12.26,354.4
"2009-02-24 00:16:30",657019,2.552,28.69,2.604,0.253,10.78,104.7692,11.48,12.37,23.03,0,110.3,13.36,12.27,350.7
"2009-02-24 00:17:00",657020,3.614,35.11,9.21,1.276,12.78,104.7689,11.48,12.51,23.16,0,110.2,13.33,12.27,357.1
"2009-02-24 00:17:30",657021,4.358,48.29,7.251,1.263,14.52,104.7695,11.48,12.59,23.11,0,110.3,13.33,12.27,10.3
"2009-02-24 00:18:00",657022,3.494,51.81,6.941,1.307,12.6,104.7713,11.49,12.39,22.92,0,110.2,13.33,12.28,13.8
"2009-02-24 00:18:30",657023,4.496,55.52,8.79,1.492,12.6,104.7837,11.52,12.5,23.1,0,110.3,13.33,12.31,17.5
"2009-02-24 00:19:00",657024,5.58,64.63,7.336,1.45,13.63,104.804,11.57,12.61,23.15,0,110.3,13.33,12.36,26.6
"2009-02-24 00:19:30",657025,4.137,65.21,8.67,1.539,12.33,104.8054,11.57,12.44,22.96,0,110.3,13.33,12.37,27.2
"2009-02-24 00:20:00",657026,4.137,62.08,3.622,0.314,10.96,104.806,11.58,12.42,23.26,0,110.3,13.36,12.37,24.1
"2009-02-24 00:20:30",657027,4.252,59.83,1.634,0.253,11.03,104.8359,11.65,12.45,23.65,0,110.2,13.36,12.45,21.8
"2009-02-24 00:21:00",657028,4.109,62.75,0.793,0.101,11.2,104.8621,11.72,12.5,23.41,0,110.3,13.37,12.51,24.8
"2009-02-24 00:21:30",657029,4.62,68.14,6.673,1.035,12.6,104.8894,11.79,12.61,23.49,0,110.2,13.33,12.58,30.1
"2009-02-24 00:22:00",657030,5.378,75.24,6.887,1.367,14.71,104.91,11.84,12.83,23.99,0,110.2,13.33,12.64,37.2
"2009-02-24 00:22:30",657031,4.963,71.09,5.981,1.351,14.54,104.9397,11.92,12.79,23.58,0,110.2,13.33,12.71,33.1
"2009-02-24 00:23:00",657032,3.976,69.41,3.907,0.962,12.11,104.9518,11.95,12.71,23.25,0,110.2,13.34,12.74,31.4
"2009-02-24 00:23:30",657033,3.675,69.25,6.178,1.05,12.15,104.9746,12.01,12.9,23.42,0,110.2,13.33,12.80,31.2
"2009-02-24 00:24:00",657034,4.131,69.01,8.23,1.424,13.57,104.9842,12.03,12.94,23.41,0,110.2,13.33,12.83,31.0
"2009-02-24 00:24:30",657035,3.882,70.49,8.05,1.307,13.57,105.0079,12.09,13.03,23.4,0,110.2,13.33,12.89,32.5
"2009-02-24 00:25:00",657036,2.518,62.04,3.709,0.189,11.04,105.0085,12.09,12.88,23.19,0,110.2,13.37,12.89,24.0
"2009-02-24 00:25:30",657037,2.545,62.86,2.6,0.363,11,105.0248,12.14,12.91,23.31,0,110.2,13.37,12.93,24.9
"2009-02-24 00:26:00",657038,2.914,64.22,1.946,0.029,11.15,105.0364,12.17,12.94,22.94,0,110.2,13.37,12.96,26.2
"2009-02-24 00:26:30",657039,2.863,62.7,1.48,0.111,11.29,105.0381,12.17,12.96,22.57,0,110.2,13.37,12.96,24.7
"2009-02-24 00:27:00",657040,3.512,67.1,6.52,1.139,13.71,105.0316,12.15,13.22,22.88,0,110.2,13.34,12.95,29.1
"2009-02-24 00:27:30",657041,4.529,70.56,6.673,1.222,15.31,105.0341,12.16,13.21,22.99,0,110.2,13.34,12.95,32.6
"2009-02-24 00:28:00",657042,3.107,60.25,6.04,0.894,11.79,105.0364,12.17,12.99,22.65,0,110.2,13.34,12.96,22.2
"2009-02-24 00:28:30",657043,3.134,61.72,5.106,1.047,12.26,105.0389,12.17,13.16,22.92,0,110.2,13.33,12.97,23.7
"2009-02-24 00:29:00",657044,3.372,55.93,5.63,1.164,12.06,105.0389,12.17,13.09,22.6,0,110.2,13.33,12.97,17.9
"2009-02-24 00:29:30",657045,4.407,60.69,5.569,1.195,14.86,105.0209,12.13,13.22,22.62,0,110.2,13.33,12.92,22.7
"2009-02-24 00:30:00",657046,2.205,45.8,9.37,0.357,11.07,105.0085,12.09,13.12,22.41,0,110.2,13.33,12.89,7.8
"2009-02-24 00:30:30",657047,2.301,29.01,7.838,0.316,10.71,104.9791,12.02,12.97,22.09,0,110.2,13.36,12.81,351.0
"2009-02-24 00:31:00",657048,2.419,24.2,6.675,0.246,10.5,104.9433,11.93,12.89,22.08,0,110.2,13.36,12.72,346.2
"2009-02-24 00:31:30",657049,2.426,22.02,5.584,0.24,10.89,104.9112,11.85,12.88,22.22,0,110.2,13.37,12.64,344.0
"2009-02-24 00:32:00",657050,4.274,35.91,7.592,1.335,14.51,104.9007,11.82,13.02,22.48,0,110.2,13.33,12.61,357.9
"2009-02-24 00:32:30",657051,4.369,47.76,5.555,1.154,14.42,104.8762,11.76,12.95,22.56,0,110.2,13.34,12.55,9.8
"2009-02-24 00:33:00",657052,2.398,37.18,3.404,0.249,10.87,104.8758,11.75,12.73,22.45,0,110.2,13.38,12.55,359.2
"2009-02-24 00:33:30",657053,3.108,35.97,6.317,1.263,12.01,104.8763,11.76,12.74,22.52,0,110.2,13.34,12.55,358.0
"2009-02-24 00:34:00",657054,3.316,37.18,11.23,1.393,12.66,104.8778,11.76,12.81,22.6,0,110.2,13.34,12.55,359.2
"2009-02-24 00:34:30",657055,2.237,30.87,5.344,0.767,10.61,104.8731,11.75,12.67,22.48,0,110.2,13.34,12.54,352.9
"2009-02-24 00:35:00",657056,2.416,35.32,7.855,0.985,10.9,104.8551,11.7,12.66,22.46,0,110.2,13.34,12.49,357.3
"2009-02-24 00:35:30",657057,3.04,31.67,8.68,1.289,12.96,104.8484,11.68,12.81,22.56,0,110.2,13.34,12.48,353.7
"2009-02-24 00:36:00",657058,2.134,24.88,2.187,0.402,10.67,104.8358,11.65,12.6,22.36,0,110.2,13.34,12.44,346.9
"2009-02-24 00:36:30",657059,2.258,22.99,2.745,0.157,10.65,104.8158,11.6,12.58,22.37,0,110.2,13.38,12.39,345.0
"2009-02-24 00:37:00",657060,3.139,25.88,8.36,1.224,12.22,104.7961,11.55,12.72,22.62,0,110.2,13.34,12.34,347.9
"2009-02-24 00:37:30",657061,4.138,27.57,6.597,1.272,14.25,104.7849,11.52,12.79,22.76,0,110.2,13.34,12.31,349.6
"2009-02-24 00:38:00",657062,2.898,21.76,4.167,0.803,11.32,104.7611,11.46,12.5,22.47,0,110.2,13.34,12.25,343.8
"2009-02-24 00:38:30",657063,2.958,21.37,4.911,0.761,11.09,104.7561,11.45,12.57,22.71,0,110.2,13.34,12.24,343.4
"2009-02-24 00:39:00",657064,3.518,26.12,7.471,1.338,11.51,104.7501,11.43,12.41,22.66,0,110.2,13.34,12.22,348.1
"2009-02-24 00:39:30",657065,2.5,18.28,1.942,0.244,10.13,104.7336,11.39,12.36,22.68,0,110.2,13.38,12.18,340.3
"2009-02-24 00:40:00",657066,2.708,22.35,4.386,0.319,10.32,104.7281,11.38,12.34,22.63,0,110.2,13.38,12.17,344.4
"2009-02-24 00:40:30",657067,3.698,28.69,6.861,1.332,13.22,104.7299,11.38,12.5,22.83,0,110.2,13.35,12.17,350.7
"2009-02-24 00:41:00",657068,2.965,23.99,4.652,0.767,10.99,104.734,11.39,12.36,22.73,0,110.2,13.35,12.18,346.0
"2009-02-24 00:41:30",657069,2.901,19.6,5.661,1.036,12.65,104.7322,11.39,12.36,22.77,0,110.2,13.35,12.18,341.6
"2009-02-24 00:42:00",657070,3.721,26.4,11.26,1.499,13.89,104.7358,11.4,12.5,22.9,0,110.2,13.35,12.19,348.4
"2009-02-24 00:42:30",657071,2.786,20.76,7.602,1.361,12.64,104.737,11.4,12.43,22.84,0,110.2,13.35,12.19,342.8
"2009-02-24 00:43:00",657072,3.124,27.69,8.88,1.406,12.3,104.7382,11.4,12.34,22.78,0,110.2,13.35,12.19,349.7
"2009-02-24 00:43:30",657073,2.78,20.1,6.366,1.213,12.08,104.739,11.4,12.43,22.86,0,110.2,13.35,12.20,342.1
"2009-02-24 00:44:00",657074,1.663,11.77,6.413,0.357,9.69,104.7201,11.36,12.26,22.86,0,110.2,13.38,12.15,333.8
"2009-02-24 00:44:30",657075,2.463,16.2,3.186,0.399,9.79,104.7055,11.32,12.24,22.83,0,110.2,13.38,12.11,338.2
"2009-02-24 00:45:00",657076,2.387,15.92,3.931,0.436,10.17,104.7055,11.32,12.21,22.72,0,110.2,13.38,12.11,337.9
"2009-02-24 00:45:30",657077,1.901,15.24,4.193,0.336,10.46,104.6979,11.3,12.2,23,0,110.2,13.38,12.09,337.2
"2009-02-24 00:46:00",657078,2.684,18.1,5.408,1.066,12.51,104.6728,11.23,12.34,23.29,0,110.2,13.35,12.03,340.1
"2009-02-24 00:46:30",657079,2.46,13.11,10,1.297,12.23,104.6716,11.23,12.24,23.37,0,110.2,13.34,12.02,335.1
"2009-02-24 00:47:00",657080,2.833,15.66,7.126,1.304,13.15,104.6663,11.22,12.35,23.58,0,110.2,13.34,12.01,337.7
"2009-02-24 00:47:30",657081,3.647,22.11,8.38,1.445,13.95,104.6544,11.19,12.36,23.6,0,110.2,13.34,11.98,344.1
"2009-02-24 00:48:00",657082,3.047,18.83,6.653,1.286,12.71,104.6536,11.19,12.3,23.51,0,110.2,13.34,11.98,340.8
"2009-02-24 00:48:30",657083,2.595,15.13,6.343,1.084,10.41,104.6541,11.19,12.09,23.34,0,110.2,13.34,11.98,337.1
"2009-02-24 00:49:00",657084,1.897,9.68,4.059,0.247,9.55,104.6561,11.19,12.08,23.33,0,110.2,13.38,11.98,331.7
"2009-02-24 00:49:30",657085,1.897,12.68,4.28,0.292,9.67,104.6572,11.2,12.07,23.35,0,110.2,13.38,11.99,334.7
"2009-02-24 00:50:00",657086,2.294,14.76,3.485,0.441,10.07,104.6595,11.2,12.08,23.21,0,110.2,13.39,11.99,336.8
"2009-02-24 00:50:30",657087,2.136,15,3.525,0.247,10.47,104.6677,11.22,12.08,23.15,0,110.2,13.39,12.01,337.0
"2009-02-24 00:51:00",657088,2.063,14.99,3.651,0.336,10.92,104.6716,11.23,12.08,23.12,0,110.2,13.39,12.02,337.0
"2009-02-24 00:51:30",657089,1.917,11.1,8.45,0.715,11.94,104.6716,11.23,12.21,23.25,0,110.2,13.36,12.02,333.1
"2009-02-24 00:52:00",657090,3.462,23.28,6.428,1.175,14.65,104.6728,11.23,12.34,23.35,0,110.2,13.36,12.03,345.3
"2009-02-24 00:52:30",657091,3.716,26.13,7.877,1.359,14.96,104.6934,11.29,12.44,23.39,0,110.2,13.35,12.08,348.1
"2009-02-24 00:53:00",657092,3.988,26.59,9.18,1.425,14.2,104.7055,11.32,12.35,23.2,0,110.2,13.35,12.11,348.6
"2009-02-24 00:53:30",657093,2.102,13.43,7.032,0.502,10.06,104.7055,11.32,12.14,22.96,0,110.2,13.35,12.11,335.4
"2009-02-24 00:54:00",657094,1.758,12.84,4.216,0.274,9.57,104.7055,11.32,12.15,22.96,0,110.2,13.39,12.11,334.8
"2009-02-24 00:54:30",657095,1.447,6.531,3.881,0.207,9.57,104.6964,11.3,12.15,23.12,0,110.2,13.39,12.09,328.5
"2009-02-24 00:55:00",657096,1.566,8.88,3.679,0.145,9.78,104.6722,11.23,12.13,23.45,0,110.1,13.39,12.02,330.9
"2009-02-24 00:55:30",657097,1.967,9.45,3.388,0.264,10.16,104.6716,11.23,12.12,23.43,0,110.2,13.39,12.02,331.5
"2009-02-24 00:56:00",657098,2.529,10,3.724,0.326,10.61,104.6691,11.23,12.11,23.33,0,110.2,13.39,12.02,332.0
"2009-02-24 00:56:30",657099,3.847,16.19,7.066,1.22,12.99,104.6603,11.2,12.19,23.37,0,110.2,13.36,11.99,338.2
"2009-02-24 00:57:00",657100,4.084,18.77,9.55,1.577,13.72,104.6527,11.18,12.31,23.37,0,110.2,13.36,11.97,340.8
"2009-02-24 00:57:30",657101,5.269,26.66,5.876,1.238,15.48,104.6646,11.21,12.37,23.18,0,110.2,13.36,12.01,348.7
"2009-02-24 00:58:00",657102,5.6,29.96,4.524,0.855,15.66,104.6716,11.23,12.34,23.07,0,110.2,13.36,12.02,352.0
"2009-02-24 00:58:30",657103,3.447,20.2,3.278,0.72,10.54,104.6877,11.27,12.14,22.83,0,110.2,13.36,12.06,342.2
"2009-02-24 00:59:00",657104,3.253,20.77,2.281,0.197,10.05,104.7055,11.32,12.16,22.8,0,110.1,13.39,12.11,342.8
"2009-02-24 00:59:30",657105,3.03,23.56,2.047,0.177,10.11,104.7173,11.35,12.19,22.84,0,110.2,13.39,12.14,345.6
"2009-02-24 01:00:00",657106,2.867,23.21,2.454,0.196,10.49,104.7385,11.4,12.21,22.77,0,110.2,13.39,12.20,345.2
"2009-02-24 01:00:30",657107,2.858,24.23,4.052,0.648,11.42,104.7393,11.41,12.28,22.79,0,110.2,13.36,12.20,346.2
"2009-02-24 01:01:00",657108,3.45,29.93,4.975,1.316,12.67,104.747,11.42,12.32,22.81,0,110.2,13.35,12.22,351.9
"2009-02-24 01:01:30",657109,4.411,35.31,5.913,1.176,15.18,104.7682,11.48,12.48,22.96,0,110.1,13.35,12.27,357.3
"2009-02-24 01:02:00",657110,2.917,27.3,6.802,0.943,12.73,104.7738,11.49,12.45,22.83,0,110.1,13.35,12.29,349.3
"2009-02-24 01:02:30",657111,3.954,32.33,7.293,1.245,14.15,104.7741,11.49,12.48,22.81,0,110.1,13.35,12.29,354.3
"2009-02-24 01:03:00",657112,3.674,32.09,6.587,1.353,13.59,104.7741,11.49,12.6,22.92,0,110.1,13.35,12.29,354.1
"2009-02-24 01:03:30",657113,2.09,26.51,3.39,0.588,10.98,104.7773,11.5,12.41,22.74,0,110.1,13.35,12.29,348.5
"2009-02-24 01:04:00",657114,2.268,23.21,1.719,0.101,10.01,104.7805,11.51,12.37,22.67,0,110.1,13.39,12.30,345.2
"2009-02-24 01:04:30",657115,2.481,21.07,1.373,0.089,10.1,104.7807,11.51,12.38,22.6,0,110.1,13.39,12.30,343.1
"2009-02-24 01:05:00",657116,2.255,19.05,2.449,0.278,10.36,104.7788,11.51,12.39,22.47,0,110.1,13.39,12.30,341.0
"2009-02-24 01:05:30",657117,2.117,17.5,7.555,1.091,11.46,104.7788,11.51,12.53,22.26,0,110.1,13.36,12.30,339.5
"2009-02-24 01:06:00",657118,3.169,23.33,5.893,1.217,12.58,104.7667,11.48,12.44,22.25,0,110.1,13.36,12.27,345.3
"2009-02-24 01:06:30",657119,3.489,24.05,7.357,1.393,14.08,104.7473,11.43,12.52,22.48,0,110.1,13.36,12.22,346.0
"2009-02-24 01:07:00",657120,2.28,19.1,2.788,0.231,11.01,104.747,11.42,12.38,22.57,0,110.1,13.4,12.22,341.1
"2009-02-24 01:07:30",657121,2.87,21.19,7.409,1.255,12.34,104.7482,11.43,12.41,22.66,0,110.1,13.36,12.22,343.2
"2009-02-24 01:08:00",657122,2.818,20.51,6.068,1.223,11.75,104.7499,11.43,12.4,22.7,0,110.1,13.36,12.22,342.5
"2009-02-24 01:08:30",657123,3.911,27.02,5.723,1.187,14.12,104.7514,11.44,12.48,22.76,0,110.1,13.36,12.23,349.0
"2009-02-24 01:09:00",657124,1.934,16.52,2.326,0.222,10.63,104.7517,11.44,12.4,22.69,0,110.1,13.4,12.23,338.5
"2009-02-24 01:09:30",657125,2.013,17.83,1.716,0.168,10.21,104.7547,11.44,12.34,22.67,0,110.1,13.4,12.24,339.8
"2009-02-24 01:10:00",657126,1.966,18.31,1.811,0.17,10.3,104.7556,11.45,12.34,22.66,0,110.1,13.4,12.24,340.3
"2009-02-24 01:10:30",657127,2.094,19.12,2.044,0.182,10.59,104.755,11.45,12.35,22.68,0,110.1,13.4,12.24,341.1
"2009-02-24 01:11:00",657128,3.189,24.16,7.002,1.284,13.45,104.7582,11.45,12.56,22.89,0,110.2,13.36,12.25,346.2
"2009-02-24 01:11:30",657129,3.925,28.6,6.494,1.311,14.31,104.7588,11.46,12.54,22.87,0,110.1,13.36,12.25,350.6
"2009-02-24 01:12:00",657130,2.086,21.1,1.4,0.12,10.75,104.7597,11.46,12.33,22.67,0,110.1,13.4,12.25,343.1
"2009-02-24 01:12:30",657131,1.891,21.93,1.854,0.085,10.61,104.7615,11.46,12.34,22.68,0,110.1,13.4,12.25,343.9
"2009-02-24 01:13:00",657132,2.607,28.22,6.973,1.273,12.13,104.7734,11.49,12.35,22.76,0,110.1,13.36,12.28,350.2
"2009-02-24 01:13:30",657133,2.243,27.78,4.974,1.096,12.51,104.7884,11.53,12.51,22.93,0,110.1,13.36,12.32,349.8
"2009-02-24 01:14:00",657134,2.57,25.5,7.413,1.023,11.76,104.7951,11.55,12.36,22.78,0,110.1,13.36,12.34,347.5
"2009-02-24 01:14:30",657135,3.064,27.48,6.4,1.274,13.15,104.8001,11.56,12.55,23,0,110.1,13.36,12.35,349.5
"2009-02-24 01:15:00",657136,1.714,18.57,1.898,0.118,10.68,104.8051,11.57,12.38,22.92,0,110.1,13.4,12.37,340.6
"2009-02-24 01:15:30",657137,1.541,16.73,5.076,0.321,10.52,104.8045,11.57,12.38,22.68,0,110.1,13.4,12.36,338.7
"2009-02-24 01:16:00",657138,1.977,21.93,5.27,0.807,11.37,104.8066,11.58,12.49,22.77,0,110.1,13.37,12.37,343.9
"2009-02-24 01:16:30",657139,3.714,34.07,5.973,1.061,14.66,104.8034,11.57,12.63,22.87,0,110.1,13.36,12.36,356.1
"2009-02-24 01:17:00",657140,1.737,26.89,2.973,0.786,10.8,104.8046,11.57,12.36,22.63,0,110.1,13.37,12.36,348.9
"2009-02-24 01:17:30",657141,1.792,22.42,1.457,0.124,10.39,104.8069,11.58,12.38,22.65,0,110.1,13.4,12.37,344.4
"2009-02-24 01:18:00",657142,1.704,22.37,1.776,0.078,10.38,104.8084,11.58,12.38,22.63,0,110.1,13.4,12.37,344.4
"2009-02-24 01:18:30",657143,1.658,25.32,2.689,0.084,10.64,104.8078,11.58,12.41,22.65,0,110.1,13.4,12.37,347.3
"2009-02-24 01:19:00",657144,2.691,33.65,8.03,1.336,13.05,104.8072,11.58,12.56,22.78,0,110.1,13.36,12.37,355.6
"2009-02-24 01:19:30",657145,1.792,27.06,2.183,0.462,10.96,104.8084,11.58,12.41,22.54,0,110.1,13.36,12.37,349.1
"2009-02-24 01:20:00",657146,1.893,24.47,2.56,0.227,10.76,104.8084,11.58,12.4,22.45,0,110.1,13.4,12.37,346.5
"2009-02-24 01:20:30",657147,2.587,23.71,4.565,0.864,11.04,104.8008,11.56,12.45,22.44,0,110.1,13.36,12.36,345.7
"2009-02-24 01:21:00",657148,3.969,30.3,6.264,1.426,13.35,104.7751,11.5,12.5,22.28,0,110.1,13.36,12.29,352.3
"2009-02-24 01:21:30",657149,3.791,33.23,7,1.282,13.23,104.748,11.43,12.59,22.42,0,110.1,13.36,12.22,355.2
"2009-02-24 01:22:00",657150,4.024,36.6,5.866,1.304,13.29,104.7251,11.37,12.47,22.21,0,110.1,13.36,12.16,358.6
"2009-02-24 01:22:30",657151,2.538,28.97,1.213,0.108,9.9,104.7062,11.32,12.23,22.17,0,110.1,13.4,12.11,351.0
"2009-02-24 01:23:00",657152,2.512,28.92,1.228,0.097,9.9,104.6831,11.26,12.2,22.31,0,110.1,13.4,12.05,350.9
"2009-02-24 01:23:30",657153,2.637,29.57,2.835,0.813,10.19,104.6732,11.24,12.15,22.4,0,110.1,13.37,12.03,351.6
"2009-02-24 01:24:00",657154,3.586,34.61,6.504,1.334,12.73,104.6698,11.23,12.3,22.56,0,110.1,13.37,12.02,356.6
"2009-02-24 01:24:30",657155,2.481,29.35,1.441,0.156,10.49,104.6546,11.19,12.11,22.45,0,110.1,13.4,11.98,351.4
"2009-02-24 01:25:00",657156,2.792,31.55,1.296,0.168,10.46,104.6396,11.15,12.09,22.46,0,110.1,13.41,11.94,353.5
"2009-02-24 01:25:30",657157,4.082,38.34,6.473,1.191,12.41,104.6394,11.15,12.11,22.51,0,110.2,13.37,11.94,0.3
"2009-02-24 01:26:00",657158,5.705,46.58,4.1,0.752,15.47,104.6394,11.15,12.36,22.72,0,110.1,13.37,11.94,8.6
"2009-02-24 01:26:30",657159,4.592,40.25,7.12,1.334,13.34,104.6394,11.15,12.25,22.64,0,110.1,13.37,11.94,2.2
"2009-02-24 01:27:00",657160,3.273,33.84,0.995,0.159,10.08,104.6394,11.15,12.05,22.4,0,110.1,13.4,11.94,355.8
"2009-02-24 01:27:30",657161,3.609,34.83,0.601,0.106,9.95,104.6374,11.14,12.02,22.31,0,110.1,13.4,11.94,356.8
"2009-02-24 01:28:00",657162,4.093,36.64,4.117,0.947,10.67,104.6233,11.11,12.05,22.36,0,110.1,13.37,11.90,358.6
"2009-02-24 01:28:30",657163,4.773,40.47,6.988,1.357,12.64,104.6145,11.09,12.11,22.39,0,110.1,13.37,11.88,2.5
"2009-02-24 01:29:00",657164,3.163,31.78,1.417,0.143,10.38,104.6063,11.06,11.97,22.24,0,110.1,13.41,11.86,353.8
"2009-02-24 01:29:30",657165,3.23,32.22,3.005,0.574,10.56,104.6049,11.06,11.94,22.22,0,110.1,13.37,11.85,354.2
"2009-02-24 01:30:00",657166,5.244,43.59,7.195,1.384,13.82,104.5914,11.03,12.18,22.53,0,110.1,13.37,11.82,5.6
"2009-02-24 01:30:30",657167,5.849,50.97,5.404,1.079,14.93,104.5894,11.02,12.22,22.77,0,110.1,13.37,11.81,13.0
"2009-02-24 01:31:00",657168,4.168,44.38,5.571,1.143,11.56,104.6044,11.06,11.91,22.67,0,110.1,13.37,11.85,6.4
"2009-02-24 01:31:30",657169,3.542,40.35,0.598,0.085,10.27,104.6142,11.09,11.95,22.7,0,110.1,13.4,11.88,2.3
"2009-02-24 01:32:00",657170,3.832,39.88,0.477,0.066,10.31,104.634,11.14,12.04,22.72,0,110.1,13.4,11.93,1.9
"2009-02-24 01:32:30",657171,4.858,47,5.877,1.303,13.07,104.6394,11.15,12.09,22.67,0,110.1,13.37,11.94,9.0
"2009-02-24 01:33:00",657172,4.102,41.62,5.683,1,12.02,104.6467,11.17,12.18,22.64,0,110.1,13.38,11.96,3.6
"2009-02-24 01:33:30",657173,3.67,36.01,0.833,0.136,10.89,104.6659,11.22,12.03,22.4,0,110.1,13.4,12.01,358.0
"2009-02-24 01:34:00",657174,4.242,37.55,5.333,1.197,12.64,104.6729,11.24,12.21,22.49,0,110.1,13.37,12.03,359.5
"2009-02-24 01:34:30",657175,5.653,45.85,4.08,0.83,15.87,104.6732,11.24,12.39,22.61,0,110.1,13.36,12.03,7.8
"2009-02-24 01:35:00",657176,3.936,36.3,6.173,1.182,12.03,104.6732,11.24,12.2,22.43,0,110.1,13.36,12.03,358.3
"2009-02-24 01:35:30",657177,3.265,33.07,2.124,0.331,10.26,104.6732,11.24,12.11,22.31,0,110.1,13.4,12.03,355.1
"2009-02-24 01:36:00",657178,3.447,33.85,1.611,0.3,10.17,104.6732,11.24,12.09,22.36,0,110.1,13.4,12.03,355.9
"2009-02-24 01:36:30",657179,3.551,34.31,2.548,0.252,10.85,104.6732,11.24,12.22,22.38,0,110.1,13.4,12.03,356.3
"2009-02-24 01:37:00",657180,4.317,37.38,7.188,1.405,12.61,104.6732,11.24,12.14,22.26,0,110.1,13.37,12.03,359.4
"2009-02-24 01:37:30",657181,3.219,32.96,2.191,0.407,10.77,104.6732,11.24,12.17,22.36,0,110.1,13.4,12.03,355.0
"2009-02-24 01:38:00",657182,3.322,33.1,5.015,0.959,11.32,104.6732,11.24,12.12,22.3,0,110.1,13.37,12.03,355.1
"2009-02-24 01:38:30",657183,3.65,35.72,6.884,1.201,12.61,104.6738,11.24,12.3,22.45,0,110.1,13.37,12.03,357.7
"2009-02-24 01:39:00",657184,5.312,44.07,4.362,0.756,15.07,104.6817,11.26,12.39,22.59,0,110.1,13.38,12.05,6.1
"2009-02-24 01:39:30",657185,4.143,38.05,6.626,1.373,13.45,104.6851,11.27,12.31,22.57,0,110.1,13.38,12.06,0.0
"2009-02-24 01:40:00",657186,2.526,29.74,1.381,0.316,10.13,104.6918,11.28,12.13,22.44,0,110.1,13.41,12.08,351.7
"2009-02-24 01:40:30",657187,2.661,29.33,0.798,0.189,10.1,104.6969,11.3,12.14,22.51,0,110.1,13.41,12.09,351.3
"2009-02-24 01:41:00",657188,3.594,32.16,6.488,1.215,12.12,104.7059,11.32,12.17,22.71,0,110.1,13.37,12.11,354.2
"2009-02-24 01:41:30",657189,2.601,27.75,6.772,0.899,11.64,104.7071,11.32,12.34,22.75,0,110.1,13.38,12.11,349.8
"2009-02-24 01:42:00",657190,3.406,30.54,6.664,1.229,11.97,104.7071,11.32,12.18,22.54,0,110.1,13.38,12.11,352.5
"2009-02-24 01:42:30",657191,2.485,27.33,1.699,0.137,10.75,104.7071,11.32,12.28,22.64,0,110.1,13.42,12.11,349.3
"2009-02-24 01:43:00",657192,3.666,32.03,6.52,1.406,12.76,104.7116,11.33,12.27,22.61,0,110.1,13.38,12.13,354.0
"2009-02-24 01:43:30",657193,2.664,30.89,5.874,1.131,12.26,104.728,11.38,12.36,22.77,0,110.1,13.38,12.17,352.9
"2009-02-24 01:44:00",657194,3.35,31.74,7.027,1.219,13.23,104.7347,11.39,12.46,22.89,0,110.1,13.38,12.19,353.7
"2009-02-24 01:44:30",657195,3.11,29.18,6.542,1.168,12.37,104.7404,11.41,12.45,22.69,0,110.1,13.38,12.20,351.2
"2009-02-24 01:45:00",657196,2.571,26.73,4.322,0.891,10.77,104.7409,11.41,12.27,22.55,0,110.1,13.38,12.20,348.7
"2009-02-24 01:45:30",657197,2.318,23.06,2.182,0.168,10.19,104.7409,11.41,12.25,22.54,0,110.1,13.42,12.20,345.1
"2009-02-24 01:46:00",657198,2.456,23.89,3.824,0.843,10.6,104.7409,11.41,12.25,22.51,0,110.1,13.38,12.20,345.9
"2009-02-24 01:46:30",657199,3.39,29.01,7.945,1.321,12.99,104.7409,11.41,12.44,22.5,0,110.1,13.38,12.20,351.0
"2009-02-24 01:47:00",657200,2.748,22.65,3.808,0.644,10.86,104.7409,11.41,12.27,22.27,0,110.1,13.38,12.20,344.6
"2009-02-24 01:47:30",657201,3.376,25.94,6.359,1.156,12.14,104.7409,11.41,12.42,22.39,0,110.1,13.38,12.20,347.9
"2009-02-24 01:48:00",657202,3.534,28.72,5.763,1.201,12.01,104.7409,11.41,12.33,22.25,0,110.1,13.38,12.20,350.7